NUSAT-3

Satellite information

Favourite Embed

Satellite Type and Status

PAYLOADDECAYED

Key statistics

Satellite NUSAT-3 at a glance.

Uptime

2935

Days in orbit

Revolutions

≈ 16.4

Per day

Orbit

LEO

Low Earth Orbit

Inclination

43.0

Latest

Satellite identification and parameters

Extended collection of information and parameters for NUSAT-3.

Object identification

Identified? True

Debris? False

Object name: NUSAT-3

International designator: 2017-034C

Object number (NORAD): 42760

Object ID (CCSDS): 42760

Country: ARGENTINA (ARGN)

Current information (Y/N): Y

RCS size: MEDIUM

Orbital parameters

Decay date: June 28, 2025

Period: 88.046 minutes

Inclination: 42.9738 deg

SMA: 6555.902 km

Apoapsis: 179.294 km

Periapsis: 176.239 km

RAAN: 198.394 deg

Eccentricy: 0.000233

Argument of periapsis: 46.3341 deg

Mean anomaly: 313.7743 deg

Mean motion: 16.35513327 rev/day

Mean motion (dot): 0.06404055 rev/day2

B* drag term: 0.00076368 1/REarth

Two-line elements (TLE)

Creation date: June 22, 2025, 5:23 p.m.

Reference frame: TEME

Reference center: EARTH

Epoch: June 22, 2025, 6:20 a.m. UTC

TLE line 0: 0 NUSAT-3

TLE line 1: 1 42760U 17034C 25173.26452699 .06404055 92296-5 76368-3 0 9995

TLE line 2: 2 42760 42.9738 198.3940 0002330 46.3341 313.7743 16.35513327445149

Live tracking on map

Satellite NUSAT-3 has decayed and is no longer in orbit. No tracking available.

In-orbit conjunctions

Satellite NUSAT-3 has decayed and is no longer in orbit. No conjunctions available.

Associated space launch

Hard X-ray Modulation Telescope (HXMT) is a Chinese X-ray space observatory. This will be China's first astronomy satellite, and it is tasked with observation of black holes, neutron stars and other phenomena based on their X-ray and gamma ray emissions.

NUSAT-3 was lifted into orbit during the mission ‘Long March 4B | Huiyan (HXMT (Hard X-ray Modulation Telescope))’, on board a Long March 4B space rocket.

The launch took place on June 15, 2017, 3 a.m. from Launch Area 4 (SLS-2 / 603).

For more information about the launch, click the button.

Launch to space Long March 4B | Huiyan (HXMT (Hard X-ray Modulation Telescope))
Long March 4B | Huiyan (HXMT (Hard X-ray Modulation Telescope))

Agency: N/A

Status: Launch Successful

Launch date: June 15, 2017, 3 a.m. UTC

Rocket: Long March 4B

Launch pad: Launch Area 4 (SLS-2 / 603)

Location: Jiuquan Satellite Launch Center, People's Republic of China

...

Latest news about this satellite

There are no fresh news available about this satellite. Check back as we update our databases every day.


Newsletter sign-up

Weekly statistics, charts and insights to help you stay on top of the space industry.